TimePDT,TemperatureF,Dew PointF,Humidity,Sea Level PressureIn,VisibilityMPH,Wind Direction,Wind SpeedMPH,Gust SpeedMPH,PrecipitationIn,Events,Conditions,WindDirDegrees,DateUTC
12:43 AM,60.8,57.2,88,30.13,10.0,West,3.5,-,N/A,,Overcast,270,2013-08-03 07:43:00
12:58 AM,60.6,57.4,89,30.14,10.0,WNW,3.5,-,N/A,,Overcast,290,2013-08-03 07:58:00
1:08 AM,60.8,57.2,88,30.13,10.0,WNW,3.5,-,N/A,,Overcast,300,2013-08-03 08:08:00
1:58 AM,60.3,57.2,90,30.14,10.0,West,3.5,-,N/A,,Overcast,280,2013-08-03 08:58:00
2:58 AM,60.1,56.8,89,30.13,10.0,WSW,3.5,-,N/A,,Overcast,250,2013-08-03 09:58:00
3:53 AM,59.0,57.2,94,30.11,10.0,WNW,3.5,-,N/A,,Overcast,290,2013-08-03 10:53:00
3:58 AM,59.7,56.5,89,30.12,10.0,WNW,3.5,-,N/A,,Overcast,290,2013-08-03 10:58:00
4:38 AM,59.0,57.2,94,30.11,10.0,West,3.5,-,N/A,,Overcast,270,2013-08-03 11:38:00
4:58 AM,59.5,56.5,90,30.13,10.0,WNW,3.5,-,N/A,,Overcast,290,2013-08-03 11:58:00
5:58 AM,59.0,57.2,94,30.14,10.0,West,2.3,-,N/A,,Overcast,280,2013-08-03 12:58:00
6:08 AM,59.0,57.2,94,30.13,10.0,West,3.5,-,N/A,,Overcast,270,2013-08-03 13:08:00
6:58 AM,59.5,57.2,92,30.15,10.0,NNW,3.5,-,N/A,,Overcast,330,2013-08-03 13:58:00
7:09 AM,59.0,57.2,94,30.14,10.0,NW,2.3,-,N/A,,Overcast,320,2013-08-03 14:09:00
7:19 AM,59.0,57.2,94,30.14,10.0,NNW,1.2,-,N/A,,Overcast,340,2013-08-03 14:19:00
7:49 AM,59.0,59.0,100,30.14,10.0,Calm,Calm,-,N/A,,Overcast,0,2013-08-03 14:49:00
7:58 AM,59.7,58.3,95,30.15,10.0,North,1.2,-,N/A,,Overcast,360,2013-08-03 14:58:00
8:28 AM,60.8,59.0,94,30.14,9.0,Calm,Calm,-,N/A,,Overcast,0,2013-08-03 15:28:00
8:33 AM,60.8,59.0,94,30.14,9.0,North,3.5,-,N/A,,Overcast,350,2013-08-03 15:33:00
8:48 AM,60.8,59.0,94,30.14,7.0,North,2.3,-,N/A,,Overcast,350,2013-08-03 15:48:00
8:58 AM,60.6,58.6,93,30.15,7.0,NNE,2.3,-,N/A,,Overcast,20,2013-08-03 15:58:00
9:23 AM,60.8,59.0,94,30.14,7.0,North,4.6,-,N/A,,Overcast,350,2013-08-03 16:23:00
9:58 AM,61.2,58.6,91,30.15,9.0,North,5.8,-,N/A,,Overcast,360,2013-08-03 16:58:00
10:13 AM,62.6,59.0,88,30.14,10.0,NW,3.5,-,N/A,,Overcast,320,2013-08-03 17:13:00
10:28 AM,62.6,57.2,82,30.13,10.0,North,4.6,-,N/A,,Overcast,10,2013-08-03 17:28:00
10:38 AM,62.6,57.2,82,30.13,10.0,NW,3.5,-,N/A,,Overcast,310,2013-08-03 17:38:00
10:58 AM,64.0,58.1,81,30.14,10.0,Calm,Calm,-,N/A,,Overcast,0,2013-08-03 17:58:00
11:18 AM,64.4,57.2,77,30.13,10.0,Variable,3.5,-,N/A,,Overcast,0,2013-08-03 18:18:00
11:53 AM,66.2,57.2,73,30.13,10.0,NE,4.6,-,N/A,,Overcast,50,2013-08-03 18:53:00
11:58 AM,65.8,57.9,76,30.14,10.0,NE,3.5,-,N/A,,Overcast,40,2013-08-03 18:58:00
12:13 PM,66.2,57.2,73,30.13,10.0,Variable,3.5,-,N/A,,Overcast,0,2013-08-03 19:13:00
12:14 PM,66.2,57.2,73,30.13,10.0,NE,3.5,-,N/A,Rain,Light Rain,40,2013-08-03 19:14:00
12:15 PM,66.2,57.2,73,30.13,10.0,Variable,3.5,-,N/A,,Overcast,0,2013-08-03 19:15:00
12:19 PM,66.2,57.2,73,30.13,10.0,NNE,1.2,-,N/A,Rain,Light Rain,20,2013-08-03 19:19:00
12:23 PM,66.2,57.2,73,30.13,10.0,Variable,2.3,-,N/A,,Mostly Cloudy,0,2013-08-03 19:23:00
12:58 PM,67.1,57.2,70,30.13,10.0,NW,4.6,-,0.00,,Overcast,310,2013-08-03 19:58:00
1:27 PM,68.0,57.2,68,30.13,10.0,ENE,5.8,-,N/A,Rain,Light Rain,60,2013-08-03 20:27:00
1:38 PM,68.0,57.2,68,30.13,10.0,West,8.1,-,N/A,,Overcast,270,2013-08-03 20:38:00
1:48 PM,69.8,57.2,64,30.13,10.0,Variable,6.9,-,N/A,,Overcast,0,2013-08-03 20:48:00
1:58 PM,69.6,57.7,66,30.13,10.0,WNW,8.1,-,0.00,,Overcast,300,2013-08-03 20:58:00
2:09 PM,69.8,57.2,64,30.12,10.0,Variable,1.2,-,N/A,Rain,Light Rain,0,2013-08-03 21:09:00
2:18 PM,69.8,57.2,64,30.12,10.0,NNE,4.6,-,N/A,,Overcast,30,2013-08-03 21:18:00
2:21 PM,69.8,57.2,64,30.12,10.0,Variable,2.3,-,N/A,Rain,Light Rain,0,2013-08-03 21:21:00
2:58 PM,71.1,57.4,62,30.12,10.0,Variable,3.5,-,0.00,Rain,Light Rain,0,2013-08-03 21:58:00
3:07 PM,71.6,57.2,60,30.11,10.0,ENE,4.6,-,N/A,,Mostly Cloudy,70,2013-08-03 22:07:00
3:08 PM,71.6,57.2,60,30.11,10.0,East,4.6,-,N/A,Rain,Light Rain,80,2013-08-03 22:08:00
3:48 PM,71.6,57.2,60,30.10,10.0,East,6.9,-,N/A,,Overcast,80,2013-08-03 22:48:00
3:58 PM,72.1,57.2,59,30.11,10.0,ENE,8.1,-,0.00,,Overcast,70,2013-08-03 22:58:00
4:58 PM,74.7,57.2,54,30.09,10.0,ENE,8.1,-,N/A,,Mostly Cloudy,70,2013-08-03 23:58:00
5:58 PM,73.0,57.2,57,30.08,10.0,NNE,4.6,-,N/A,,Partly Cloudy,30,2013-08-04 00:58:00
6:58 PM,72.1,57.4,60,30.07,10.0,NNE,5.8,-,N/A,,Partly Cloudy,30,2013-08-04 01:58:00
7:58 PM,71.1,57.2,61,30.07,10.0,NNE,8.1,-,N/A,,Clear,20,2013-08-04 02:58:00
8:58 PM,68.2,56.7,67,30.08,10.0,NNE,5.8,-,N/A,,Clear,30,2013-08-04 03:58:00
9:58 PM,66.2,55.6,69,30.09,10.0,North,9.2,-,N/A,,Clear,10,2013-08-04 04:58:00
10:58 PM,64.6,55.6,73,30.08,10.0,NNE,5.8,-,N/A,,Clear,20,2013-08-04 05:58:00
11:58 PM,64.4,55.2,72,30.08,10.0,North,8.1,-,N/A,,Overcast,10,2013-08-04 06:58:00